sat.trackr.live / text

‹ back to catalog

O3B FM19

NORAD 44113 · 2019-020B

PAYLOAD ACTIVE UNKNOWN

§ Identity

Operator
Country
O3B
Launch date
2019-04-04
Launch site
FRGUI
Launch vehicle
Mass (kg)
RCS (m²)

Purposes: comms

External: N2YO · Heavens-Above · Gunter

§ Orbital elements

Epoch: 2026-09-19T23:41:21.095808Z

Period
287.93 min
Inclination
0.0765°
Eccentricity
0.0002905
Mean motion
5.00116090 rev/d
Perigee alt
8,061.7 km
Apogee alt
8,070.1 km
Semi-major
14,444.0 km
B*
0.0000e+0
RAAN
339.7762°
Arg perigee
172.7324°
Mean anomaly
207.5091°
Rev number
13,618

§ Raw data

O3B FM191 44113U 19020B   26262.98704972 -.00000027  00000+0  00000+0 0  99972 44113   0.0765 339.7762 0002905 172.7324 207.5091  5.00116090136187

JSON: /api/v1/satellites/44113 · /tle

For live sub-satellite position, see the globe view (requires WebGL).

§ Visibility from observer

Set your observer location to see the next 7 days of passes ≥ 10°. The values pass through the URL so the page stays shareable.

No JS? Fill the form by hand. The geolocation button needs JavaScript.